| time (UTC) | temp F | wind direction | speed knots | gust knots | rain 1hr in | rain 24hr in | rain mn in | humidity % | barometer mb |
| 20260904144613 | 69 | 105 | 3.5 | 7.0 | 0.00 | 0.00 | 0.00 | 74 | 1013.8 |
| 20260904143121 | 66 | 90 | 3.5 | 7.0 | 0.00 | 0.00 | 0.00 | 77 | 1013.8 |
| 20260904141559 | 67 | 82 | 1.7 | 4.3 | 0.00 | 0.00 | 0.00 | 76 | 1013.7 |
| 20260904140058 | 66 | 88 | 1.7 | 3.5 | 0.00 | 0.00 | 0.00 | 78 | 1013.5 |
| 20260904134558 | 64 | 99 | 2.6 | 5.2 | 0.00 | 0.00 | 0.00 | 82 | 1013.5 |
| 20260904133111 | 63 | 94 | 2.6 | 6.1 | 0.00 | 0.00 | 0.00 | 83 | 1013.2 |
| 20260904131556 | 63 | 101 | 3.5 | 6.1 | 0.00 | 0.00 | 0.00 | 83 | 1013.3 |
| 20260904130105 | 63 | 101 | 3.5 | 7.0 | 0.00 | 0.00 | 0.00 | 82 | 1013.2 |
| 20260904124559 | 63 | 82 | 2.6 | 5.2 | 0.00 | 0.00 | 0.00 | 83 | 1013.2 |
| 20260904123100 | 63 | 80 | 2.6 | 5.2 | 0.00 | 0.00 | 0.00 | 83 | 1013.1 |
| 20260904121556 | 64 | 97 | 2.6 | 5.2 | 0.00 | 0.00 | 0.00 | 83 | 1013.1 |
| 20260904120105 | 64 | 93 | 3.5 | 6.1 | 0.00 | 0.00 | 0.00 | 82 | 1013.0 |
| 20260904114606 | 64 | 105 | 3.5 | 7.0 | 0.00 | 0.00 | 0.00 | 82 | 1013.2 |
| 20260904113058 | 65 | 107 | 2.6 | 7.8 | 0.00 | 0.00 | 0.00 | 82 | 1013.2 |
| 20260904111557 | 65 | 98 | 3.5 | 7.8 | 0.00 | 0.00 | 0.00 | 82 | 1013.3 |
| 20260904110053 | 65 | 121 | 4.3 | 7.0 | 0.00 | 0.00 | 0.00 | 82 | 1013.3 |
| 20260904104601 | 65 | 109 | 3.5 | 6.1 | 0.00 | 0.00 | 0.00 | 83 | 1013.2 |
| 20260904103057 | 65 | 101 | 2.6 | 6.1 | 0.00 | 0.00 | 0.00 | 84 | 1013.1 |
| 20260904101553 | 64 | 104 | 3.5 | 6.1 | 0.00 | 0.00 | 0.00 | 84 | 1012.9 |
| 20260904100059 | 64 | 94 | 2.6 | 5.2 | 0.00 | 0.00 | 0.00 | 84 | 1013.0 |
| 20260904094559 | 64 | 132 | 1.7 | 2.6 | 0.00 | 0.00 | 0.00 | 84 | 1012.9 |
| 20260904093054 | 63 | 133 | 1.7 | 3.5 | 0.00 | 0.00 | 0.00 | 85 | 1012.9 |
| 20260904091554 | 63 | 159 | 0.9 | 3.5 | 0.00 | 0.00 | 0.00 | 84 | 1013.0 |
| 20260904090100 | 64 | 161 | 0.9 | 3.5 | 0.00 | 0.00 | 0.00 | 84 | 1013.0 |
| 20260904084601 | 64 | 161 | 0.9 | 1.7 | 0.00 | 0.00 | 0.00 | 84 | 1013.0 |
| 20260904083105 | 63 | 161 | 0.0 | 1.7 | 0.00 | 0.00 | 0.00 | 84 | 1013.1 |
| 20260904081600 | 64 | 161 | 0.9 | 3.5 | 0.00 | 0.00 | 0.00 | 84 | 1013.3 |
| 20260904080121 | 64 | 0 | 0.0 | 0.0 | 0.00 | 0.00 | 0.00 | 84 | 1013.4 |
| 20260904074556 | 64 | 161 | 0.0 | 1.7 | 0.00 | 0.00 | 0.00 | 84 | 1013.5 |
| 20260904073112 | 64 | 161 | 0.9 | 3.5 | 0.00 | 0.00 | 0.00 | 84 | 1013.4 |
| 20260904071603 | 64 | 207 | 0.0 | 2.6 | 0.00 | 0.00 | 0.00 | 84 | 1013.5 |
| 20260904064557 | 64 | 207 | 0.9 | 2.6 | 0.00 | 0.00 | 0.00 | 83 | 1013.4 |
| 20260904063116 | 65 | 208 | 0.0 | 1.7 | 0.00 | 0.00 | 0.00 | 83 | 1013.4 |
| 20260904061557 | 65 | 0 | 0.0 | 0.0 | 0.00 | 0.00 | 0.00 | 83 | 1013.3 |
| 20260904060056 | 65 | 0 | 0.0 | 0.0 | 0.00 | 0.00 | 0.00 | 83 | 1013.3 |
| 20260904054604 | 64 | 0 | 0.0 | 0.0 | 0.00 | 0.00 | 0.00 | 82 | 1013.3 |
| 20260904053138 | 65 | 0 | 0.0 | 0.0 | 0.00 | 0.00 | 0.00 | 82 | 1013.4 |
| 20260904051556 | 66 | 0 | 0.0 | 0.0 | 0.00 | 0.00 | 0.00 | 81 | 1013.5 |
| 20260904050104 | 66 | 0 | 0.0 | 0.9 | 0.00 | 0.00 | 0.00 | 81 | 1013.6 |
| 20260904044614 | 65 | 209 | 0.0 | 1.7 | 0.00 | 0.00 | 0.00 | 81 | 1013.6 |
| 20260904043104 | 66 | 209 | 0.0 | 2.6 | 0.00 | 0.00 | 0.00 | 81 | 1013.5 |
| 20260904041603 | 66 | 0 | 0.9 | 2.6 | 0.00 | 0.00 | 0.00 | 80 | 1013.5 |
| 20260904040106 | 66 | 214 | 0.0 | 3.5 | 0.00 | 0.00 | 0.00 | 80 | 1013.4 |
| 20260904034605 | 66 | 216 | 0.9 | 2.6 | 0.00 | 0.00 | 0.00 | 81 | 1013.1 |
| 20260904033105 | 66 | 219 | 1.7 | 4.3 | 0.00 | 0.00 | 0.00 | 80 | 1013.0 |
| 20260904031603 | 66 | 0 | 0.0 | 1.7 | 0.00 | 0.00 | 0.00 | 80 | 1012.8 |
| 20260904030103 | 66 | 0 | 0.0 | 2.6 | 0.00 | 0.00 | 0.00 | 79 | 1012.8 |
| 20260904024601 | 67 | 237 | 0.9 | 3.5 | 0.00 | 0.00 | 0.00 | 78 | 1012.8 |
| 20260904023055 | 67 | 243 | 0.9 | 3.5 | 0.00 | 0.00 | 0.00 | 78 | 1012.9 |
| 20260904021558 | 68 | 250 | 0.9 | 3.5 | 0.00 | 0.00 | 0.00 | 77 | 1012.8 |
| 20260904014606 | 69 | 265 | 1.7 | 4.3 | 0.00 | 0.00 | 0.00 | 75 | 1012.8 |
| 20260904013118 | 70 | 241 | 2.6 | 7.8 | 0.00 | 0.00 | 0.00 | 74 | 1012.9 |
| 20260904011626 | 71 | 240 | 3.5 | 7.8 | 0.00 | 0.00 | 0.00 | 72 | 1012.9 |
| 20260904010057 | 71 | 0 | 3.5 | 10.4 | 0.00 | 0.00 | 0.00 | 72 | 1013.0 |
| 20260904004600 | 72 | 250 | 4.3 | 10.4 | 0.00 | 0.00 | 0.00 | 71 | 1012.9 |
| 20260904003057 | 73 | 261 | 3.5 | 10.4 | 0.00 | 0.00 | 0.00 | 69 | 1013.0 |
| 20260904001554 | 73 | 292 | 5.2 | 10.4 | 0.00 | 0.00 | 0.00 | 70 | 1013.1 |
| 20260904000104 | 73 | 252 | 3.5 | 13.0 | 0.00 | 0.00 | 0.00 | 70 | 1013.1 |
| 20260903234557 | 73 | 253 | 4.3 | 11.3 | 0.00 | 0.00 | 0.00 | 68 | 1013.1 |
| 20260903233056 | 73 | 269 | 5.2 | 12.2 | 0.00 | 0.00 | 0.00 | 70 | 1013.2 |
| 20260903231554 | 74 | 257 | 5.2 | 11.3 | 0.00 | 0.00 | 0.00 | 71 | 1013.4 |
| 20260903230058 | 74 | 246 | 6.1 | 11.3 | 0.00 | 0.00 | 0.00 | 72 | 1013.3 |
| 20260903224601 | 75 | 360 | 5.2 | 11.3 | 0.00 | 0.00 | 0.00 | 71 | 1013.4 |
| 20260903223059 | 75 | 360 | 3.5 | 11.3 | 0.00 | 0.00 | 0.00 | 71 | 1013.5 |
| 20260903221559 | 75 | 238 | 5.2 | 10.4 | 0.00 | 0.00 | 0.00 | 71 | 1013.6 |
| 20260903220104 | 75 | 235 | 6.1 | 12.2 | 0.00 | 0.00 | 0.00 | 71 | 1013.7 |
| 20260903214610 | 75 | 268 | 7.0 | 11.3 | 0.00 | 0.00 | 0.00 | 71 | 1013.8 |
| 20260903213057 | 75 | 203 | 4.3 | 13.9 | 0.00 | 0.00 | 0.00 | 71 | 1013.8 |
| 20260903211604 | 75 | 229 | 6.1 | 13.9 | 0.00 | 0.00 | 0.00 | 70 | 1014.0 |
| 20260903210140 | 76 | 246 | 5.2 | 11.3 | 0.00 | 0.00 | 0.00 | 70 | 1014.0 |
| 20260903204606 | 76 | 360 | 4.3 | 11.3 | 0.00 | 0.00 | 0.00 | 69 | 1014.0 |
| 20260903203057 | 76 | 242 | 5.2 | 11.3 | 0.00 | 0.00 | 0.00 | 68 | 1014.2 |
| 20260903201558 | 76 | 257 | 4.3 | 10.4 | 0.00 | 0.00 | 0.00 | 69 | 1014.2 |
| 20260903200105 | 77 | 245 | 4.3 | 9.6 | 0.00 | 0.00 | 0.00 | 68 | 1014.2 |
| 20260903194559 | 76 | 227 | 3.5 | 11.3 | 0.00 | 0.00 | 0.00 | 69 | 1014.4 |
| 20260903193058 | 75 | 360 | 5.2 | 11.3 | 0.00 | 0.00 | 0.00 | 69 | 1014.4 |
| 20260903191602 | 75 | 266 | 4.3 | 10.4 | 0.00 | 0.00 | 0.00 | 70 | 1014.4 |
| 20260903190104 | 75 | 360 | 6.1 | 11.3 | 0.00 | 0.00 | 0.00 | 69 | 1014.7 |
| 20260903184603 | 75 | 229 | 5.2 | 11.3 | 0.00 | 0.00 | 0.00 | 69 | 1014.9 |
| 20260903183101 | 75 | 223 | 4.3 | 11.3 | 0.00 | 0.00 | 0.00 | 68 | 1015.2 |
| 20260903181554 | 75 | 360 | 6.1 | 10.4 | 0.00 | 0.00 | 0.00 | 69 | 1015.2 |
| 20260903180108 | 76 | 240 | 5.2 | 9.6 | 0.00 | 0.00 | 0.00 | 68 | 1015.2 |
| 20260903174558 | 76 | 226 | 3.5 | 8.7 | 0.00 | 0.00 | 0.00 | 67 | 1015.4 |
| 20260903173056 | 76 | 232 | 3.5 | 7.0 | 0.00 | 0.00 | 0.00 | 68 | 1015.2 |
| 20260903171614 | 79 | 0 | 1.7 | 6.1 | 0.00 | 0.00 | 0.00 | 63 | 1015.1 |
| 20260903170100 | 79 | 130 | 1.7 | 7.0 | 0.00 | 0.00 | 0.00 | 61 | 1015.2 |
| 20260903164604 | 78 | 148 | 3.5 | 7.0 | 0.00 | 0.00 | 0.00 | 63 | 1015.1 |
| 20260903163101 | 76 | 291 | 0.9 | 7.0 | 0.00 | 0.00 | 0.00 | 66 | 1015.2 |
| 20260903161600 | 77 | 109 | 4.3 | 7.0 | 0.00 | 0.00 | 0.00 | 65 | 1015.1 |
| 20260903160106 | 76 | 0 | 1.7 | 3.5 | 0.00 | 0.00 | 0.00 | 65 | 1015.4 |
| 20260903154606 | 74 | 82 | 1.7 | 4.3 | 0.00 | 0.00 | 0.00 | 67 | 1015.3 |
| 20260903153110 | 73 | 78 | 1.7 | 4.3 | 0.00 | 0.00 | 0.00 | 67 | 1015.5 |
| 20260903151611 | 72 | 59 | 1.7 | 5.2 | 0.00 | 0.00 | 0.00 | 68 | 1015.4 |
| 20260903150110 | 70 | 78 | 1.7 | 5.2 | 0.00 | 0.00 | 0.00 | 71 | 1015.5 |